sat.trackr.live / text

‹ back to catalog

ONEWEB-0255

NORAD 48973 · 2021-060G

PAYLOAD ACTIVE UNKNOWN

§ Identity

Operator
Country
UK
Launch date
2021-07-01
Launch site
VOSTO
Launch vehicle
Mass (kg)
RCS (m²)

Purposes: comms

External: N2YO · Heavens-Above · Gunter

§ Orbital elements

Epoch: 2026-09-20T04:37:01.979328Z

Period
109.37 min
Inclination
87.9156°
Eccentricity
0.0001947
Mean motion
13.16594122 rev/d
Perigee alt
1,196.3 km
Apogee alt
1,199.2 km
Semi-major
7,575.9 km
B*
-5.0608e-5
RAAN
209.9181°
Arg perigee
71.9093°
Mean anomaly
288.2250°
Rev number
25,216

§ Raw data

ONEWEB-02551 48973U 21060G   26263.19238402 -.00000007  00000+0 -50608-4 0  99992 48973  87.9156 209.9181 0001947  71.9093 288.2250 13.16594122252166

JSON: /api/v1/satellites/48973 · /tle

For live sub-satellite position, see the globe view (requires WebGL).

§ Visibility from observer

Set your observer location to see the next 7 days of passes ≥ 10°. The values pass through the URL so the page stays shareable.

No JS? Fill the form by hand. The geolocation button needs JavaScript.